Tracking 28790 objects as of 19-Apr-2024
HD Live streaming from Space Station
objects crossing your sky now

STARLINK-1555

Track STARLINK-1555 now!
10-day predictions
STARLINK-1555 is classified as:


NORAD ID: 46032
Int'l Code: 2020-055F
Perigee: 553.5 km
Apogee: 555.4 km
Inclination: 53.1 °
Period: 95.6 minutes
Semi major axis: 6925 km
RCS: Unknown
Launch date: August 7, 2020
Source: United States (US)
Launch site: AIR FORCE EASTERN TEST RANGE (AFETR)
Your satellite tracking list
Your tracking list is empty




NASA's NSSDC Master Catalog

Two Line Element Set (TLE):
1 46032U 20055F   24109.94593989  .00002805  00000-0  20723-3 0  9991
2 46032  53.0554 342.9894 0001363  98.8603 261.2540 15.06381668204937
Source of the keplerian elements: AFSPC